Wind_Speed
27 29 32 32 32 32 34 36 37 39 41 42 42 40 40 39 39 39 39 38 37 37 36 36 35 34 33 33 31 30 29 28 27 26 25 23 22 20 19 19 18 16 15 16 16 15 13 12 12 12 11 10 9 9 9 8 7 7 7 7 6 5 5
26 28 30 32 33 34 37 40 43 44 43 43 42 41 41 40 40 40 40 39 38 37 37 36 36 35 34 33 32 31 30 29 28 27 26 24 23 22 20 19 19 19 18 16 15 15 14 13 13 12 12 11 10 10 10 9 9 9 9 9 8 7 6
25 27 29 32 33 35 39 44 45 45 45 43 42 42 42 42 40 40 40 39 38 37 37 37 36 35 34 34 33 32 31 30 29 28 27 25 24 23 22 21 20 19 16 14 14 14 14 14 14 13 13 12 11 12 12 11 11 11 11 10 9 9 8
24 26 28 31 33 35 40 46 48 47 46 45 43 42 42 41 40 39 39 39 38 37 37 38 37 36 35 34 34 33 32 31 30 29 27 26 25 24 23 21 20 18 15 14 15 16 15 15 15 15 14 13 12 13 14 13 13 12 12 12 10 10 9
23 24 26 29 32 33 35 41 47 49 48 45 44 43 41 40 39 39 39 38 37 37 36 36 37 37 36 35 35 34 33 32 31 30 28 27 26 24 23 21 20 18 17 17 17 17 17 16 16 16 15 14 14 15 15 14 13 13 13 12 11 10 9
21 24 27 29 31 33 36 40 44 47 49 47 46 44 42 39 39 39 38 38 38 37 35 36 36 37 36 36 35 35 34 33 31 30 29 27 26 24 23 22 21 20 19 19 19 18 18 17 17 17 16 15 15 15 15 15 13 13 13 12 11 10 8
21 24 28 30 30 32 36 38 38 40 44 45 46 45 43 41 40 40 39 38 38 37 37 37 37 37 37 36 36 35 35 34 32 30 30 28 27 25 24 23 22 21 21 20 20 19 19 18 17 17 16 16 16 15 16 16 14 13 13 12 11 11 10
20 23 26 27 28 27 28 31 32 32 34 38 42 44 44 42 40 40 41 39 38 38 38 38 37 37 37 37 37 37 36 35 34 32 31 30 28 27 26 24 23 22 22 22 21 21 20 19 17 17 17 17 17 17 17 17 15 14 14 14 13 12 11
17 20 22 22 24 25 24 25 27 28 31 35 39 40 43 43 40 40 41 39 39 39 38 38 38 38 38 38 38 38 38 38 38 35 32 30 29 29 28 25 23 24 24 24 23 22 21 19 18 18 19 18 18 18 18 17 16 16 16 16 15 14 12
14 16 18 19 21 22 22 23 26 31 34 37 39 39 41 43 41 40 40 39 38 38 38 37 36 37 39 39 39 40 41 41 39 35 31 29 29 30 28 25 24 25 24 24 24 23 21 20 20 20 20 20 20 20 19 18 17 17 18 17 16 15 13
12 14 15 17 19 21 22 23 27 34 37 39 40 40 41 43 42 42 42 40 39 37 37 35 33 35 39 40 41 42 41 39 38 35 31 30 30 30 29 26 24 24 24 26 27 25 22 21 21 22 22 21 21 21 20 19 19 18 19 18 17 15 14
11 13 14 16 19 22 24 25 28 34 36 39 40 40 41 41 41 42 42 42 40 36 33 31 30 34 40 42 43 42 40 38 37 35 33 33 33 32 32 31 30 30 30 31 32 28 25 25 25 24 23 22 22 22 21 20 20 20 19 19 17 16 15
12 13 14 15 18 22 25 27 31 34 36 38 39 38 39 39 39 39 40 41 39 33 29 28 31 35 40 42 42 40 39 40 38 35 35 36 35 34 34 34 35 37 37 35 33 30 28 28 26 24 23 23 23 23 22 21 22 21 20 20 19 18 17
13 13 15 16 18 22 26 30 34 35 36 37 37 37 37 36 37 37 38 39 37 31 27 28 32 35 38 41 39 34 34 39 39 37 38 38 36 35 35 35 36 39 39 38 35 32 30 29 27 24 24 24 24 24 23 23 23 22 22 21 20 20 19
14 14 16 18 20 23 26 31 35 37 37 37 36 36 36 36 36 36 36 36 35 32 28 27 31 35 37 39 37 30 29 37 40 39 39 39 39 38 38 38 39 39 40 41 39 34 32 30 27 26 26 26 25 25 25 25 24 23 24 23 21 20 19
14 15 18 21 23 25 27 31 35 37 37 37 36 36 36 36 35 35 35 34 35 34 30 29 33 35 35 37 37 34 33 36 38 37 38 40 41 41 41 41 41 40 41 42 41 38 34 30 28 28 28 26 27 27 26 26 26 25 25 24 21 19 18
16 17 19 21 24 25 27 30 34 36 37 37 35 34 34 34 32 32 33 32 33 34 31 33 35 32 32 35 36 35 34 35 35 35 35 38 41 43 43 42 43 43 43 42 42 39 35 32 30 29 28 27 28 28 27 26 26 26 25 23 21 19 19
18 20 21 23 24 26 28 33 36 38 38 35 33 34 33 31 30 29 29 30 31 30 30 32 33 32 31 31 30 30 32 33 33 33 33 35 38 42 45 45 45 46 45 43 43 41 37 35 33 30 29 29 28 28 28 27 27 27 25 23 21 19 19
20 20 21 24 26 28 31 33 35 36 36 32 31 31 29 27 26 25 26 28 28 27 28 28 30 31 28 24 24 28 30 30 30 31 30 31 34 38 44 47 47 48 47 45 44 43 40 38 35 30 29 30 28 28 29 28 28 28 26 24 22 20 19
17 16 17 19 23 27 28 29 29 31 31 29 28 27 25 24 24 23 24 26 26 26 27 27 27 27 23 21 23 26 27 27 29 28 27 28 30 35 41 46 49 49 48 46 46 45 42 39 36 31 29 29 28 28 28 27 26 27 26 24 21 19 19
15 15 15 17 20 23 27 29 29 29 28 27 26 26 25 25 24 23 23 24 25 25 25 25 25 24 21 21 23 25 25 26 27 27 26 26 28 33 38 44 49 51 49 47 47 46 42 39 36 34 32 29 28 28 27 24 23 23 22 21 19 19 20
16 16 17 19 22 25 28 30 29 27 27 27 27 26 25 24 24 23 23 22 22 21 21 22 23 23 21 21 23 24 25 25 24 25 24 22 24 31 36 40 47 51 50 49 48 45 41 38 36 36 36 33 29 27 25 23 22 21 19 17 17 18 19
16 16 17 19 21 24 27 27 27 26 27 28 27 25 24 24 23 22 21 20 18 17 18 19 20 21 21 20 21 22 22 22 22 22 20 19 21 26 30 33 38 45 50 50 46 43 42 39 35 37 40 37 31 27 25 22 22 21 19 16 17 18 19
15 16 17 17 19 23 26 27 28 28 28 28 26 25 24 23 22 20 18 16 15 14 15 16 17 18 17 17 19 20 18 18 19 18 17 18 18 20 22 23 25 35 46 49 43 39 40 39 37 39 43 38 30 28 26 22 21 22 20 18 18 19 19
14 15 18 20 21 24 26 28 29 28 27 27 26 26 25 23 21 18 17 15 14 13 13 13 13 13 12 13 17 17 14 14 15 15 15 15 16 18 20 21 24 31 40 46 44 39 36 35 36 41 42 35 27 25 24 22 21 22 22 20 19 19 20
15 16 18 18 18 20 23 26 28 28 28 29 29 28 26 24 22 19 17 15 13 11 10 9 10 10 10 12 14 14 13 13 13 13 13 13 15 17 18 22 29 33 37 43 44 40 34 30 32 37 37 31 23 19 19 20 20 21 22 21 19 18 19
15 15 16 17 19 23 26 29 31 32 32 32 31 29 27 25 23 20 18 16 14 12 11 10 10 10 10 11 13 13 12 12 12 12 12 12 13 16 18 23 29 30 30 33 35 36 34 31 30 33 34 30 25 20 18 19 18 17 19 18 15 17 20
18 19 20 23 25 28 32 34 35 35 34 32 30 28 26 24 22 20 18 16 15 13 12 12 11 10 10 11 12 12 12 12 11 11 11 12 14 17 21 26 28 26 24 25 27 30 32 31 32 32 29 25 22 20 19 18 15 14 16 15 15 19 21
25 26 29 31 31 33 37 39 38 35 32 30 27 26 24 22 21 19 17 16 14 12 11 10 10 10 10 11 11 11 11 12 12 11 11 13 16 17 21 25 26 24 23 23 24 25 27 30 31 29 23 19 18 18 16 14 11 12 15 16 17 18 18
29 31 32 32 33 35 36 37 35 32 30 28 25 23 20 18 17 17 15 13 11 10 9 8 8 9 10 10 10 10 11 12 12 11 12 14 16 19 22 24 22 20 19 21 21 22 25 27 27 23 18 16 16 14 11 10 10 13 15 16 16 16 16
28 30 32 33 34 34 33 33 32 30 28 25 22 20 17 15 14 13 12 11 10 10 10 9 9 10 9 9 9 10 11 12 12 11 12 13 16 21 24 23 19 17 19 21 21 23 25 25 23 19 15 12 10 9 8 11 14 15 13 12 12 15 17
27 29 32 33 33 32 31 30 29 28 27 25 21 18 16 13 11 9 9 11 11 11 10 10 9 8 7 7 7 8 10 10 11 11 11 11 13 18 22 22 19 19 20 22 24 25 24 22 19 15 10 8 8 9 11 15 15 12 12 14 17 18 17
29 30 31 31 30 29 28 27 26 24 23 22 19 17 14 12 10 10 11 12 11 11 10 8 7 7 6 6 6 7 8 9 10 10 10 10 12 15 18 20 20 21 21 22 25 26 23 19 16 12 10 11 11 13 14 14 11 9 11 15 17 17 15
30 29 28 26 25 23 21 21 20 18 16 16 15 14 12 12 11 11 11 10 8 7 6 6 6 6 6 6 6 7 8 10 11 10 9 10 13 15 17 18 19 20 20 22 26 27 22 17 14 12 13 14 15 15 12 9 7 8 10 11 11 11 12
27 25 24 22 20 18 18 17 16 15 14 13 13 11 11 10 9 8 7 6 5 4 5 5 5 5 5 5 6 7 9 11 11 10 9 11 13 14 16 18 18 17 18 22 27 27 22 18 16 15 14 14 15 14 10 7 9 12 13 13 13 13 12
24 22 20 18 16 16 15 14 13 13 12 11 10 9 8 8 7 6 4 4 4 4 5 6 5 6 6 6 6 8 9 10 10 10 11 12 14 14 16 18 19 18 20 23 25 24 21 19 18 16 15 14 13 12 10 10 13 15 15 14 14 13 12
22 20 18 16 14 13 12 12 10 9 9 8 7 6 6 6 6 5 5 4 4 4 5 6 6 7 8 8 9 11 10 9 10 11 11 10 12 12 13 13 13 14 16 18 17 17 17 16 15 15 15 14 13 12 12 13 14 14 14 14 13 13 13
19 18 16 14 13 12 11 10 9 8 7 7 6 6 6 6 6 6 6 5 4 4 4 5 7 11 11 11 14 16 15 12 11 10 9 9 10 10 9 9 9 11 13 13 13 13 14 14 14 15 15 14 12 12 12 13 13 13 12 12 12 14 15
Wind_Direction
201 203 203 202 203 205 208 211 213 216 220 224 226 226 225 224 224 225 225 224 223 222 222 224 225 226 227 227 227 229 230 232 233 234 235 236 237 239 243 246 248 247 248 255 258 258 259 258 256 258 261 264 264 259 253 241 228 231 237 241 244 242 245
202 203 203 202 203 205 210 217 221 222 223 225 226 226 226 226 225 225 226 226 224 223 222 223 225 226 227 228 228 229 230 232 234 236 236 236 237 239 241 243 247 251 253 255 255 258 262 262 261 262 262 264 265 260 254 246 239 240 241 242 244 246 248
204 203 201 201 202 205 211 218 223 224 225 225 225 225 226 226 226 226 226 226 225 223 223 224 225 226 227 229 229 230 231 232 234 236 237 237 239 240 241 243 246 249 250 249 250 255 260 262 263 263 262 263 262 259 257 254 248 243 240 243 246 248 248
204 203 200 201 203 206 212 218 222 223 224 224 224 225 225 224 225 226 226 227 227 225 224 224 225 226 227 229 230 231 232 233 234 237 238 238 240 240 240 243 245 246 247 248 250 253 255 259 262 262 262 261 258 257 259 256 249 243 240 242 246 247 249
204 201 198 201 204 206 209 215 221 223 223 223 224 225 225 225 225 226 227 227 228 227 226 225 226 227 228 229 231 232 233 235 236 237 239 238 239 240 241 243 245 245 247 250 252 252 253 256 259 262 263 262 259 258 259 255 247 243 243 244 244 242 243
201 196 198 202 204 207 212 217 220 222 223 223 224 225 224 225 227 227 227 227 227 228 228 227 228 229 230 230 231 233 234 236 237 238 240 239 239 239 240 242 243 243 244 247 249 251 253 254 257 262 264 263 261 257 257 253 244 241 246 245 240 232 226
197 196 201 204 205 208 213 217 217 216 219 221 222 225 224 224 227 228 228 228 227 227 228 228 229 230 231 231 232 234 235 236 238 239 239 239 237 237 236 238 239 240 241 243 245 247 250 252 255 260 263 262 259 255 252 247 240 241 246 240 232 229 227
198 200 205 206 208 210 211 213 212 208 209 213 217 221 224 223 223 226 229 229 228 228 228 229 229 230 231 232 233 234 234 236 235 236 237 237 235 235 234 235 237 239 239 240 242 242 245 250 252 254 257 257 255 253 248 243 239 241 242 234 231 233 235
202 205 210 208 209 213 211 209 208 203 203 209 212 215 220 221 219 222 227 228 229 229 228 229 230 231 232 232 233 234 233 234 233 233 234 234 233 234 233 233 235 237 237 238 240 240 242 246 247 249 252 252 251 249 246 241 239 239 237 233 235 236 237
204 204 209 209 207 212 211 204 204 206 207 211 212 212 217 221 219 220 223 224 226 229 231 229 225 228 233 233 233 233 233 234 234 233 233 233 233 233 233 232 235 239 239 239 241 239 240 243 243 245 247 246 246 245 242 239 237 236 236 235 238 240 242
205 205 205 207 207 208 207 202 204 210 211 213 214 213 217 220 220 221 223 223 223 226 229 226 216 221 232 234 233 234 233 235 236 235 235 234 233 232 230 228 232 239 241 242 240 236 237 243 244 244 244 243 243 243 239 238 236 236 236 236 239 243 247
207 212 210 211 208 205 203 201 206 212 214 214 215 216 218 220 221 222 224 225 224 221 220 215 206 215 231 235 235 235 233 233 234 233 233 233 232 230 226 223 225 229 233 236 237 231 230 237 241 242 242 241 241 241 238 236 236 235 236 237 240 246 251
220 218 221 217 208 204 203 204 210 215 217 217 217 218 220 222 222 222 224 226 223 215 208 205 204 214 228 235 238 238 235 232 231 230 231 231 231 230 228 226 226 226 228 230 233 230 227 230 235 238 240 240 240 240 238 236 235 235 236 238 240 246 252
230 219 219 215 210 209 207 209 213 216 217 217 218 219 220 221 221 222 223 223 219 210 203 203 207 215 225 232 234 235 234 233 231 229 229 230 230 231 232 231 229 229 229 230 231 231 226 225 228 231 235 238 238 239 238 236 236 236 237 238 240 245 252
228 213 211 214 219 218 214 214 215 216 216 216 217 218 219 220 220 221 222 222 220 213 204 202 210 218 224 228 230 230 234 239 238 232 229 229 230 231 232 233 232 231 230 229 229 229 227 223 223 226 231 235 237 237 237 237 237 237 238 238 240 245 253
227 218 214 221 229 227 221 219 218 216 215 214 215 216 217 218 220 221 222 223 223 219 209 208 217 223 224 228 233 235 239 244 244 238 231 229 230 230 231 232 233 231 229 228 227 227 227 223 221 226 230 232 235 236 236 238 239 239 239 239 240 245 253
233 225 218 224 231 229 223 219 218 217 215 214 213 212 213 215 217 219 221 222 224 223 216 216 223 224 224 231 234 236 241 247 249 247 240 233 230 230 230 231 232 231 229 228 226 226 226 222 220 226 231 230 233 235 235 237 239 241 242 240 240 244 252
235 228 223 226 230 228 223 218 216 216 214 211 208 208 209 211 212 215 217 219 222 222 217 219 226 228 231 233 231 235 245 251 252 252 248 239 233 231 230 230 232 231 230 229 228 225 224 220 217 224 231 231 232 233 233 236 239 242 245 245 243 245 250
238 234 230 230 230 229 223 217 213 213 211 207 205 205 205 205 207 209 212 216 218 218 216 220 227 232 232 225 223 237 249 251 250 252 250 244 238 233 231 230 232 232 231 230 228 226 224 219 214 220 229 231 232 231 233 237 240 243 248 248 247 248 252
242 236 229 227 227 225 218 208 205 208 209 205 202 203 201 201 205 205 207 213 215 216 218 222 227 230 225 216 225 241 249 247 246 249 251 246 239 234 233 232 233 233 232 229 227 225 223 217 213 219 229 231 231 231 234 240 244 248 253 252 251 253 257
237 230 221 216 217 217 212 206 205 205 203 200 198 199 198 197 199 201 204 208 211 215 218 223 228 227 220 222 235 242 243 243 244 246 249 246 238 234 233 232 233 233 231 227 225 225 223 218 216 224 231 233 233 234 237 243 249 256 261 259 255 258 261
235 224 214 213 217 218 215 210 206 200 194 192 192 191 191 191 192 196 199 201 206 211 215 221 227 227 225 232 238 238 239 241 242 243 243 238 233 234 233 232 234 236 232 226 225 225 224 221 222 228 232 235 238 238 240 248 256 266 271 266 261 262 262
233 220 214 222 227 225 217 207 201 195 186 183 183 183 183 186 188 190 192 195 199 205 211 219 224 227 230 234 234 235 239 241 240 239 235 227 226 231 231 230 235 237 233 228 225 225 224 224 225 228 231 235 241 244 247 255 265 272 273 266 263 263 262
225 214 208 212 213 211 208 198 191 189 183 177 177 178 177 177 178 178 179 184 190 197 206 214 220 224 228 229 231 234 236 237 238 235 229 224 222 226 226 224 230 235 233 228 224 223 226 226 225 228 231 235 242 249 255 262 272 277 272 264 262 262 260
200 193 191 195 197 200 200 190 182 181 178 172 171 170 167 163 162 163 165 169 177 187 196 206 213 218 220 222 226 226 223 226 229 226 223 222 221 226 226 223 230 236 234 230 225 223 226 226 224 227 232 236 242 252 261 267 273 277 274 267 263 260 260
182 179 180 186 190 192 189 180 172 170 167 164 160 156 153 151 152 154 156 159 165 172 180 188 196 202 208 213 215 212 210 217 220 218 221 223 224 227 225 226 235 238 236 234 229 225 225 224 222 226 230 232 240 256 271 276 275 274 272 267 260 258 261
170 163 160 163 169 171 167 162 159 157 154 152 149 146 147 148 149 150 150 151 153 157 162 170 179 189 198 203 203 203 208 214 217 217 220 220 221 224 226 231 237 236 233 232 230 226 226 222 221 228 230 232 241 257 272 278 273 265 262 259 255 258 262
145 143 148 154 157 156 151 149 149 147 145 144 143 144 146 146 146 146 146 146 149 155 162 167 173 182 189 192 197 202 207 214 218 220 220 217 216 224 233 237 238 236 234 234 232 231 229 224 224 230 232 234 245 257 265 268 263 254 255 259 262 266 267
134 138 143 144 145 146 147 147 145 142 140 140 140 141 143 145 146 146 147 148 151 157 163 166 171 182 191 194 198 202 206 213 219 222 224 222 219 227 237 238 237 239 237 233 230 227 225 223 225 228 230 234 245 255 260 260 258 257 261 265 268 270 273
130 133 135 137 141 145 144 141 137 133 131 131 132 134 137 143 147 146 146 150 157 166 174 183 194 202 204 204 203 203 205 211 216 219 223 225 228 234 234 229 231 236 226 216 214 214 213 216 221 225 227 232 239 248 250 249 257 264 263 261 266 275 282
114 122 129 135 138 138 136 133 131 130 128 129 132 135 138 142 145 144 147 156 169 181 189 198 209 210 206 206 209 207 205 209 214 215 219 227 234 235 229 223 226 228 214 205 206 208 210 213 215 217 220 228 237 243 239 240 251 262 267 270 279 286 287
104 113 121 125 127 129 131 130 130 131 131 132 133 136 140 144 146 151 164 173 181 187 189 193 200 200 193 195 204 206 203 207 213 213 217 225 229 229 227 225 220 214 206 203 205 206 207 210 210 210 222 246 251 240 232 237 247 263 279 284 284 283 279
108 111 114 116 119 123 126 127 126 127 129 130 133 138 146 154 162 172 181 185 187 189 189 190 193 192 188 188 199 205 202 205 209 208 210 217 217 218 222 220 212 206 203 202 202 201 201 203 202 210 243 258 244 231 233 241 255 278 286 283 284 284 282
110 112 112 114 116 118 119 122 125 126 130 133 138 145 155 162 168 174 178 182 186 189 196 202 202 207 207 197 198 202 201 206 209 199 195 210 215 215 216 214 211 210 207 201 197 197 202 206 209 228 252 247 229 225 234 241 250 261 260 256 259 266 276
111 111 112 114 116 117 118 121 125 129 133 136 138 144 152 155 159 163 167 177 187 197 220 229 219 211 200 185 190 196 194 201 205 194 189 206 215 215 212 207 204 206 206 202 200 202 211 226 236 243 243 228 218 223 228 225 237 252 254 252 252 252 259
110 110 110 111 114 115 117 120 125 130 132 133 136 142 146 147 149 152 159 184 201 213 233 234 212 184 168 170 192 201 195 194 195 187 189 204 213 215 213 207 202 202 203 203 205 211 223 236 239 233 222 216 221 229 227 226 241 252 258 261 262 262 266
109 108 107 109 111 112 114 117 122 129 133 136 140 147 150 151 154 158 170 192 207 216 226 225 196 165 160 178 197 197 190 189 192 188 187 197 206 213 216 210 202 197 199 203 210 217 222 224 221 218 219 225 231 233 231 235 244 251 257 261 265 272 278
107 108 108 109 111 112 115 120 125 133 141 146 150 154 155 156 161 166 175 186 199 206 209 196 170 160 167 190 200 192 182 182 190 192 188 182 184 191 197 194 184 177 182 196 208 210 209 211 212 214 220 227 231 233 236 240 244 251 259 266 273 279 282
Height
1465 1467 1470 1474 1476 1479 1482 1485 1488 1490 1493 1495 1498 1501 1504 1507 1510 1512 1514 1517 1520 1523 1525 1527 1530 1532 1534 1536 1538 1540 1541 1543 1544 1546 1548 1550 1552 1553 1554 1555 1556 1557 1558 1558 1558 1558 1559 1560 1560 1561 1561 1561 1561 1561 1562 1562 1562 1563 1563 1564 1564 1565 1566
1459 1462 1465 1468 1471 1473 1476 1479 1482 1485 1488 1490 1493 1497 1499 1502 1505 1507 1510 1513 1516 1519 1522 1524 1526 1529 1531 1533 1535 1536 1538 1540 1541 1543 1545 1548 1550 1551 1553 1554 1554 1555 1556 1557 1557 1557 1558 1558 1559 1559 1560 1560 1561 1561 1561 1561 1561 1562 1562 1562 1563 1564 1564
1454 1457 1459 1462 1465 1467 1470 1473 1476 1479 1482 1485 1488 1492 1494 1497 1500 1503 1506 1509 1512 1516 1519 1521 1523 1525 1528 1530 1532 1533 1535 1537 1539 1541 1543 1545 1547 1549 1550 1552 1552 1554 1554 1555 1556 1556 1556 1557 1557 1558 1558 1559 1560 1560 1560 1560 1560 1561 1561 1561 1561 1562 1562
1450 1451 1455 1458 1460 1462 1465 1467 1470 1473 1477 1480 1483 1486 1489 1492 1496 1499 1502 1505 1509 1512 1514 1517 1519 1522 1524 1526 1529 1531 1532 1535 1537 1539 1541 1543 1545 1546 1548 1549 1550 1552 1553 1553 1554 1554 1555 1555 1556 1556 1557 1558 1559 1559 1559 1559 1559 1559 1559 1560 1560 1560 1561
1445 1448 1452 1454 1455 1458 1460 1462 1465 1468 1472 1475 1479 1482 1485 1489 1492 1495 1499 1502 1505 1508 1510 1514 1516 1518 1521 1523 1526 1528 1530 1532 1534 1536 1539 1540 1542 1544 1546 1547 1548 1550 1550 1551 1552 1552 1553 1554 1554 1555 1556 1557 1557 1558 1558 1558 1558 1558 1558 1559 1559 1560 1560
1441 1444 1447 1448 1450 1453 1454 1456 1459 1462 1466 1470 1474 1477 1481 1485 1488 1491 1495 1498 1501 1504 1507 1510 1512 1515 1518 1520 1523 1525 1527 1530 1532 1534 1536 1538 1540 1541 1543 1544 1545 1546 1547 1547 1549 1549 1550 1551 1552 1553 1554 1555 1556 1556 1556 1557 1557 1557 1557 1558 1558 1559 1560
1437 1440 1441 1443 1446 1447 1449 1452 1454 1458 1462 1466 1470 1473 1476 1481 1484 1487 1490 1493 1496 1500 1503 1506 1508 1511 1514 1517 1520 1522 1524 1526 1528 1530 1532 1534 1537 1538 1539 1540 1541 1542 1543 1544 1546 1546 1547 1548 1549 1550 1551 1553 1554 1554 1555 1555 1556 1556 1556 1557 1558 1558 1559
1433 1435 1437 1440 1442 1445 1447 1450 1453 1456 1460 1463 1466 1468 1472 1476 1479 1483 1486 1489 1492 1496 1498 1502 1504 1507 1510 1513 1516 1518 1520 1521 1523 1525 1528 1530 1533 1534 1535 1536 1538 1539 1540 1541 1542 1543 1544 1545 1547 1548 1549 1550 1551 1552 1553 1554 1554 1555 1555 1556 1557 1557 1557
1431 1432 1435 1437 1440 1443 1445 1447 1450 1454 1456 1459 1461 1464 1468 1472 1475 1478 1482 1485 1488 1491 1494 1498 1501 1504 1507 1509 1511 1513 1513 1515 1517 1521 1524 1526 1529 1530 1532 1533 1535 1536 1537 1538 1539 1540 1541 1542 1543 1545 1546 1547 1549 1550 1551 1552 1552 1553 1554 1554 1555 1555 1556
1428 1430 1432 1435 1438 1440 1442 1445 1446 1449 1451 1453 1457 1460 1463 1467 1471 1475 1478 1481 1484 1487 1491 1495 1498 1500 1502 1504 1506 1506 1508 1511 1514 1518 1521 1523 1525 1527 1529 1532 1534 1535 1536 1537 1537 1537 1538 1539 1540 1542 1543 1544 1546 1547 1548 1549 1550 1551 1552 1552 1553 1553 1554
1426 1428 1430 1432 1435 1437 1439 1441 1442 1443 1446 1449 1452 1456 1459 1463 1467 1470 1474 1477 1480 1484 1487 1491 1495 1496 1497 1498 1499 1501 1505 1509 1512 1516 1518 1520 1521 1523 1526 1529 1531 1533 1535 1535 1534 1534 1535 1537 1538 1539 1540 1542 1543 1544 1545 1547 1548 1549 1550 1550 1551 1551 1552
1424 1425 1427 1429 1431 1433 1436 1437 1438 1440 1442 1445 1448 1452 1455 1459 1462 1466 1470 1473 1477 1481 1484 1488 1491 1491 1491 1492 1494 1497 1502 1506 1508 1512 1514 1514 1515 1518 1520 1521 1522 1525 1527 1529 1529 1529 1530 1533 1535 1536 1538 1540 1541 1542 1543 1544 1545 1546 1547 1548 1549 1549 1550
1421 1422 1424 1426 1428 1430 1432 1433 1434 1436 1439 1442 1445 1449 1452 1455 1459 1463 1466 1469 1473 1478 1481 1484 1486 1486 1486 1488 1490 1494 1498 1502 1505 1507 1507 1507 1510 1513 1514 1515 1516 1518 1520 1522 1524 1525 1526 1529 1531 1533 1535 1537 1538 1539 1541 1542 1543 1544 1545 1546 1546 1547 1547
1418 1419 1421 1422 1425 1426 1428 1430 1431 1433 1436 1439 1442 1446 1449 1452 1456 1459 1462 1466 1470 1475 1478 1480 1481 1482 1484 1485 1488 1491 1494 1497 1501 1502 1502 1504 1506 1508 1509 1510 1512 1514 1516 1519 1521 1522 1523 1525 1527 1530 1531 1534 1535 1537 1538 1539 1540 1541 1542 1543 1544 1544 1545
1416 1417 1417 1419 1420 1422 1424 1426 1428 1429 1432 1435 1439 1443 1446 1449 1453 1456 1459 1463 1467 1471 1474 1476 1478 1479 1481 1483 1486 1489 1490 1492 1495 1497 1500 1501 1502 1503 1504 1506 1507 1509 1512 1514 1516 1518 1519 1521 1524 1526 1527 1530 1532 1533 1535 1536 1537 1538 1539 1540 1541 1542 1543
1412 1414 1414 1414 1415 1417 1420 1423 1425 1427 1430 1432 1436 1439 1442 1446 1449 1452 1456 1459 1463 1467 1470 1472 1474 1476 1479 1480 1482 1484 1486 1487 1489 1493 1496 1497 1498 1500 1501 1502 1504 1505 1507 1509 1512 1514 1516 1518 1521 1522 1524 1526 1528 1530 1531 1532 1534 1535 1536 1538 1539 1540 1541
1409 1410 1410 1411 1412 1414 1416 1419 1422 1424 1426 1429 1432 1436 1439 1442 1446 1449 1453 1456 1459 1462 1466 1468 1470 1472 1475 1477 1479 1480 1481 1483 1484 1487 1490 1493 1494 1496 1498 1499 1500 1501 1503 1505 1508 1511 1514 1516 1519 1520 1522 1523 1524 1526 1527 1529 1530 1532 1533 1535 1537 1538 1538
1406 1406 1407 1407 1408 1410 1412 1415 1417 1419 1421 1426 1429 1432 1436 1439 1443 1446 1450 1453 1456 1459 1462 1464 1466 1469 1471 1473 1475 1477 1477 1479 1481 1482 1485 1488 1490 1492 1494 1496 1496 1497 1500 1502 1505 1507 1510 1512 1515 1518 1520 1520 1521 1523 1524 1525 1527 1528 1530 1532 1534 1535 1535
1402 1403 1404 1404 1405 1406 1408 1411 1413 1416 1419 1424 1427 1430 1434 1437 1440 1444 1447 1450 1454 1456 1459 1462 1463 1466 1468 1470 1472 1473 1474 1476 1477 1478 1480 1483 1485 1488 1490 1491 1492 1494 1496 1499 1501 1503 1505 1507 1510 1514 1516 1517 1518 1519 1521 1522 1524 1525 1527 1529 1530 1531 1532
1400 1401 1402 1403 1403 1404 1407 1410 1413 1415 1418 1423 1426 1429 1433 1436 1439 1442 1445 1448 1451 1454 1457 1459 1461 1463 1465 1467 1469 1469 1471 1473 1473 1475 1476 1479 1482 1484 1485 1486 1488 1490 1492 1495 1497 1498 1500 1504 1507 1510 1513 1514 1515 1516 1518 1519 1521 1522 1524 1526 1527 1528 1529
1397 1398 1399 1401 1402 1403 1405 1407 1410 1413 1416 1421 1424 1427 1431 1434 1437 1440 1444 1446 1449 1451 1454 1456 1458 1460 1462 1464 1465 1467 1468 1469 1470 1472 1473 1476 1479 1480 1481 1483 1485 1486 1489 1492 1493 1496 1499 1502 1505 1508 1510 1512 1513 1514 1515 1516 1518 1519 1521 1523 1524 1525 1526
1393 1395 1396 1397 1399 1400 1402 1405 1408 1411 1414 1418 1421 1425 1428 1432 1435 1438 1441 1444 1446 1449 1451 1454 1456 1458 1460 1461 1462 1464 1465 1466 1468 1469 1471 1473 1475 1476 1478 1481 1482 1483 1486 1488 1489 1494 1499 1501 1502 1506 1508 1509 1510 1511 1513 1514 1515 1517 1518 1520 1521 1522 1522
1391 1392 1393 1394 1396 1398 1400 1403 1406 1410 1412 1415 1419 1423 1426 1430 1433 1436 1438 1441 1444 1446 1449 1451 1453 1455 1457 1458 1460 1461 1462 1463 1465 1467 1469 1470 1472 1474 1476 1478 1480 1480 1483 1485 1487 1492 1496 1498 1500 1504 1505 1506 1508 1509 1511 1513 1513 1514 1515 1517 1518 1519 1519
1388 1389 1390 1391 1393 1395 1398 1401 1403 1407 1411 1414 1418 1422 1425 1428 1431 1433 1436 1439 1442 1444 1447 1449 1451 1453 1454 1456 1458 1459 1460 1461 1463 1465 1466 1468 1470 1472 1474 1476 1477 1478 1480 1482 1486 1490 1492 1495 1499 1501 1502 1503 1506 1508 1510 1511 1511 1511 1512 1514 1515 1515 1515
1385 1387 1387 1388 1389 1392 1396 1398 1401 1406 1410 1413 1416 1420 1422 1425 1428 1431 1435 1438 1440 1443 1445 1447 1449 1451 1452 1454 1456 1457 1458 1459 1461 1463 1464 1466 1468 1470 1472 1474 1475 1476 1478 1480 1483 1487 1490 1492 1497 1499 1499 1501 1504 1506 1508 1508 1508 1508 1509 1510 1511 1512 1512
1383 1384 1385 1386 1388 1391 1395 1398 1400 1404 1408 1411 1414 1417 1420 1423 1426 1429 1433 1436 1439 1442 1444 1446 1448 1449 1451 1453 1454 1455 1456 1457 1459 1460 1463 1465 1467 1469 1470 1471 1472 1474 1476 1478 1480 1484 1488 1491 1495 1496 1496 1498 1502 1504 1505 1504 1504 1505 1505 1506 1508 1508 1508
1381 1382 1384 1386 1388 1390 1394 1398 1400 1403 1406 1410 1413 1416 1419 1421 1424 1427 1430 1433 1437 1440 1442 1444 1446 1448 1449 1451 1453 1454 1455 1456 1457 1459 1460 1463 1465 1467 1468 1468 1469 1472 1474 1476 1478 1481 1485 1489 1492 1492 1492 1495 1498 1500 1501 1501 1501 1502 1502 1503 1504 1505 1505
1379 1380 1382 1384 1388 1392 1395 1398 1401 1403 1406 1409 1412 1414 1417 1420 1422 1425 1428 1431 1434 1437 1440 1442 1444 1446 1447 1449 1451 1453 1454 1455 1456 1457 1458 1460 1462 1464 1464 1465 1467 1470 1472 1474 1476 1478 1481 1484 1487 1488 1489 1492 1495 1497 1498 1498 1499 1499 1499 1499 1501 1502 1503
1376 1378 1380 1383 1388 1393 1395 1397 1400 1403 1406 1409 1412 1415 1417 1419 1421 1423 1426 1429 1432 1435 1438 1440 1442 1443 1445 1446 1448 1449 1452 1454 1455 1455 1456 1457 1459 1460 1461 1462 1465 1467 1469 1471 1473 1475 1477 1480 1482 1485 1487 1489 1492 1494 1495 1495 1496 1496 1496 1497 1499 1501 1501
1376 1379 1382 1385 1390 1394 1396 1398 1401 1404 1407 1410 1413 1416 1419 1421 1422 1423 1425 1428 1431 1434 1436 1438 1439 1441 1442 1443 1445 1446 1449 1451 1452 1453 1454 1455 1456 1457 1458 1459 1462 1464 1466 1468 1470 1473 1475 1477 1480 1483 1485 1487 1489 1491 1492 1492 1493 1495 1495 1496 1497 1498 1499
1381 1383 1385 1389 1393 1396 1399 1401 1403 1405 1408 1411 1414 1417 1420 1424 1425 1425 1426 1428 1431 1433 1435 1436 1438 1439 1440 1442 1443 1445 1447 1448 1450 1451 1452 1453 1454 1454 1454 1456 1459 1461 1463 1466 1468 1471 1473 1475 1478 1481 1483 1484 1486 1488 1488 1489 1491 1493 1493 1494 1495 1495 1496
1386 1388 1391 1393 1396 1399 1401 1403 1405 1406 1408 1411 1414 1417 1421 1424 1425 1426 1427 1429 1431 1432 1434 1435 1437 1438 1439 1441 1443 1444 1446 1447 1448 1449 1450 1451 1452 1452 1452 1454 1456 1458 1460 1463 1465 1467 1470 1473 1476 1478 1480 1482 1484 1485 1485 1487 1489 1490 1490 1491 1492 1493 1493
1389 1392 1395 1397 1399 1401 1403 1404 1407 1409 1410 1412 1415 1417 1420 1422 1423 1424 1426 1428 1429 1431 1433 1434 1435 1437 1438 1439 1442 1444 1446 1447 1448 1448 1448 1449 1450 1450 1451 1452 1454 1455 1457 1459 1461 1464 1467 1471 1473 1475 1478 1479 1481 1482 1484 1485 1486 1487 1488 1489 1490 1490 1490
1393 1395 1398 1400 1403 1405 1405 1406 1408 1410 1412 1414 1416 1418 1420 1421 1422 1424 1426 1427 1429 1431 1432 1433 1434 1435 1436 1438 1440 1443 1445 1447 1447 1447 1447 1448 1449 1450 1451 1452 1453 1455 1456 1457 1459 1462 1466 1469 1471 1473 1476 1477 1479 1480 1482 1483 1483 1484 1486 1487 1488 1488 1488
1396 1398 1401 1403 1405 1406 1407 1408 1409 1411 1413 1415 1417 1418 1420 1421 1422 1424 1426 1428 1429 1430 1431 1432 1432 1434 1435 1438 1440 1442 1444 1446 1446 1446 1447 1447 1448 1449 1450 1451 1452 1454 1455 1457 1459 1462 1466 1468 1470 1472 1474 1475 1477 1478 1480 1481 1481 1482 1483 1484 1486 1486 1486
1398 1400 1402 1404 1406 1407 1408 1409 1411 1412 1414 1416 1417 1419 1420 1421 1423 1425 1426 1428 1429 1429 1429 1430 1431 1434 1437 1439 1442 1443 1444 1444 1445 1445 1446 1446 1446 1448 1449 1450 1451 1453 1455 1458 1460 1463 1466 1467 1469 1471 1473 1474 1475 1476 1477 1478 1478 1479 1480 1482 1482 1483 1483
1399 1401 1403 1405 1407 1408 1409 1410 1412 1413 1415 1416 1418 1419 1420 1422 1423 1425 1426 1427 1428 1428 1429 1430 1432 1435 1439 1441 1442 1443 1443 1444 1444 1444 1445 1445 1446 1447 1448 1449 1452 1455 1457 1459 1461 1463 1465 1466 1468 1471 1472 1472 1473 1474 1475 1475 1476 1477 1478 1479 1479 1480 1480
1400 1402 1405 1406 1408 1409 1410 1412 1413 1414 1416 1417 1418 1420 1421 1422 1424 1425 1425 1426 1426 1427 1428 1430 1433 1437 1439 1440 1440 1441 1442 1443 1443 1444 1444 1445 1446 1448 1449 1451 1454 1455 1457 1459 1461 1463 1464 1466 1468 1470 1470 1471 1471 1472 1473 1473 1474 1474 1475 1476 1476 1476 1477